| time (UTC) | temp F | wind direction | speed knots | gust knots | rain 1hr in | rain 24hr in | rain mn in | humidity % | barometer mb |
| 20260503023542 | 60 | 113 | 1.7 | 3.5 | 0.00 | 0.00 | 0.00 | 68 | 1022.0 |
| 20260503023328 | 61 | 113 | 2.6 | 3.5 | 0.00 | 0.00 | 0.00 | 68 | 1022.5 |
| 20260503023037 | 61 | 112 | 1.7 | 3.5 | 0.00 | 0.00 | 0.00 | 67 | 1021.9 |
| 20260503022823 | 61 | 113 | 2.6 | 2.6 | 0.00 | 0.00 | 0.00 | 67 | 1022.5 |
| 20260503022528 | 61 | 113 | 1.7 | 2.6 | 0.00 | 0.00 | 0.00 | 66 | 1021.8 |
| 20260503022318 | 62 | 113 | 1.7 | 2.6 | 0.00 | 0.00 | 0.00 | 66 | 1022.3 |
| 20260503022022 | 61 | 113 | 1.7 | 2.6 | 0.00 | 0.00 | 0.00 | 66 | 1021.7 |
| 20260503021816 | 62 | 113 | 1.7 | 2.6 | 0.00 | 0.00 | 0.00 | 65 | 1022.3 |
| 20260503021516 | 62 | 113 | 0.9 | 1.7 | 0.00 | 0.00 | 0.00 | 65 | 1021.7 |
| 20260503021333 | 63 | 114 | 1.7 | 2.6 | 0.00 | 0.00 | 0.00 | 64 | 1022.2 |
| 20260503021004 | 62 | 113 | 0.9 | 2.6 | 0.00 | 0.00 | 0.00 | 63 | 1021.5 |
| 20260503020829 | 63 | 113 | 1.7 | 2.6 | 0.00 | 0.00 | 0.00 | 63 | 1022.1 |
| 20260503020556 | 63 | 112 | 0.9 | 2.6 | 0.00 | 0.00 | 0.00 | 62 | 1021.5 |
| 20260503020345 | 64 | 113 | 0.9 | 2.6 | 0.00 | 0.00 | 0.00 | 61 | 1022.1 |
| 20260503020026 | 63 | 113 | 0.9 | 2.6 | 0.00 | 0.00 | 0.00 | 61 | 1021.6 |
| 20260503015819 | 64 | 113 | 1.7 | 2.6 | 0.00 | 0.00 | 0.00 | 60 | 1022.0 |
| 20260503015520 | 64 | 112 | 1.7 | 2.6 | 0.00 | 0.00 | 0.00 | 59 | 1021.6 |
| 20260503015315 | 64 | 113 | 1.7 | 1.7 | 0.00 | 0.00 | 0.00 | 59 | 1022.1 |
| 20260503015017 | 64 | 113 | 0.9 | 1.7 | 0.00 | 0.00 | 0.00 | 59 | 1021.5 |
| 20260503014833 | 65 | 113 | 1.7 | 2.6 | 0.00 | 0.00 | 0.00 | 59 | 1022.1 |
| 20260503014602 | 65 | 112 | 0.9 | 2.6 | 0.00 | 0.00 | 0.00 | 59 | 1021.5 |
| 20260503014328 | 66 | 113 | 1.7 | 2.6 | 0.00 | 0.00 | 0.00 | 60 | 1022.2 |
| 20260503014056 | 65 | 113 | 1.7 | 2.6 | 0.00 | 0.00 | 0.00 | 58 | 1021.6 |
| 20260503013844 | 66 | 113 | 1.7 | 2.6 | 0.00 | 0.00 | 0.00 | 57 | 1022.2 |
| 20260503013530 | 66 | 113 | 0.9 | 2.6 | 0.00 | 0.00 | 0.00 | 57 | 1021.6 |
| 20260503013319 | 67 | 113 | 1.7 | 1.7 | 0.00 | 0.00 | 0.00 | 57 | 1022.0 |
| 20260503013027 | 67 | 112 | 0.9 | 1.7 | 0.00 | 0.00 | 0.00 | 57 | 1021.3 |
| 20260503012815 | 68 | 112 | 0.9 | 1.7 | 0.00 | 0.00 | 0.00 | 55 | 1021.9 |
| 20260503012510 | 68 | 113 | 0.0 | 1.7 | 0.00 | 0.00 | 0.00 | 55 | 1021.3 |
| 20260503012333 | 68 | 113 | 0.9 | 1.7 | 0.00 | 0.00 | 0.00 | 54 | 1021.9 |
| 20260503012002 | 68 | 113 | 0.9 | 1.7 | 0.00 | 0.00 | 0.00 | 53 | 1021.3 |
| 20260503011829 | 69 | 112 | 0.9 | 1.7 | 0.00 | 0.00 | 0.00 | 52 | 1021.8 |
| 20260503011620 | 69 | 113 | 0.0 | 0.9 | 0.00 | 0.00 | 0.00 | 51 | 1021.2 |
| 20260503011326 | 69 | 114 | 0.0 | 0.9 | 0.00 | 0.00 | 0.00 | 50 | 1021.7 |
| 20260503011050 | 69 | 113 | 0.0 | 0.9 | 0.00 | 0.00 | 0.00 | 51 | 1021.1 |
| 20260503010822 | 70 | 113 | 0.0 | 1.7 | 0.00 | 0.00 | 0.00 | 49 | 1021.5 |
| 20260503010542 | 69 | 113 | 0.0 | 1.7 | 0.00 | 0.00 | 0.00 | 48 | 1021.0 |
| 20260503010317 | 70 | 113 | 0.0 | 1.7 | 0.00 | 0.00 | 0.00 | 47 | 1021.5 |
| 20260503010037 | 70 | 113 | 0.9 | 2.6 | 0.00 | 0.00 | 0.00 | 46 | 1021.0 |
| 20260503005854 | 70 | 114 | 0.9 | 2.6 | 0.00 | 0.00 | 0.00 | 47 | 1021.5 |
| 20260503005559 | 70 | 112 | 0.9 | 2.6 | 0.00 | 0.00 | 0.00 | 47 | 1020.9 |
| 20260503005329 | 71 | 113 | 0.9 | 2.6 | 0.00 | 0.00 | 0.00 | 46 | 1021.4 |
| 20260503005048 | 70 | 29 | 0.9 | 1.7 | 0.00 | 0.00 | 0.00 | 46 | 1021.0 |
| 20260503004826 | 71 | 29 | 0.9 | 1.7 | 0.00 | 0.00 | 0.00 | 48 | 1021.5 |
| 20260503004547 | 71 | 29 | 0.0 | 0.9 | 0.00 | 0.00 | 0.00 | 49 | 1020.9 |
| 20260503004322 | 72 | 30 | 0.0 | 0.0 | 0.00 | 0.00 | 0.00 | 49 | 1021.4 |
| 20260503004038 | 72 | 29 | 0.0 | 0.0 | 0.00 | 0.00 | 0.00 | 48 | 1021.0 |
| 20260503003818 | 72 | 29 | 0.0 | 0.0 | 0.00 | 0.00 | 0.00 | 47 | 1021.5 |
| 20260503003520 | 72 | 30 | 0.0 | 0.0 | 0.00 | 0.00 | 0.00 | 46 | 1021.0 |
| 20260503003352 | 72 | 29 | 0.0 | 0.0 | 0.00 | 0.00 | 0.00 | 45 | 1021.4 |
| 20260503003053 | 72 | 30 | 0.0 | 0.0 | 0.00 | 0.00 | 0.00 | 46 | 1021.0 |
| 20260503002828 | 73 | 30 | 0.0 | 0.0 | 0.00 | 0.00 | 0.00 | 46 | 1021.3 |
| 20260503002544 | 72 | 29 | 0.0 | 0.0 | 0.00 | 0.00 | 0.00 | 46 | 1020.9 |
| 20260503002324 | 72 | 29 | 0.0 | 0.9 | 0.00 | 0.00 | 0.00 | 46 | 1021.3 |
| 20260503002034 | 72 | 29 | 0.0 | 1.7 | 0.00 | 0.00 | 0.00 | 46 | 1020.9 |
| 20260503001819 | 72 | 29 | 0.0 | 1.7 | 0.00 | 0.00 | 0.00 | 46 | 1021.4 |
| 20260503001528 | 72 | 29 | 0.0 | 1.7 | 0.00 | 0.00 | 0.00 | 45 | 1021.0 |
| 20260503001315 | 72 | 29 | 0.0 | 1.7 | 0.00 | 0.00 | 0.00 | 45 | 1021.4 |
| 20260503001020 | 71 | 29 | 0.0 | 1.7 | 0.00 | 0.00 | 0.00 | 46 | 1021.1 |
| 20260503000831 | 72 | 29 | 0.9 | 1.7 | 0.00 | 0.00 | 0.00 | 46 | 1021.5 |
| 20260503000507 | 71 | 30 | 0.0 | 1.7 | 0.00 | 0.00 | 0.00 | 48 | 1021.1 |
| 20260503000328 | 72 | 29 | 0.0 | 1.7 | 0.00 | 0.00 | 0.00 | 49 | 1021.5 |
| 20260503000105 | 71 | 29 | 0.9 | 1.7 | 0.00 | 0.00 | 0.00 | 48 | 1021.1 |
| 20260502235824 | 71 | 30 | 0.9 | 1.7 | 0.00 | 0.00 | 0.00 | 48 | 1021.5 |
| 20260502235548 | 71 | 29 | 0.9 | 2.6 | 0.00 | 0.00 | 0.00 | 48 | 1021.1 |
| 20260502235318 | 71 | 29 | 0.9 | 2.6 | 0.00 | 0.00 | 0.00 | 47 | 1021.5 |
| 20260502235020 | 70 | 30 | 0.9 | 2.6 | 0.00 | 0.00 | 0.00 | 47 | 1021.0 |
| 20260502234816 | 71 | 30 | 1.7 | 2.6 | 0.00 | 0.00 | 0.00 | 47 | 1021.5 |
| 20260502234513 | 70 | 29 | 0.0 | 2.6 | 0.00 | 0.00 | 0.00 | 48 | 1021.0 |
| 20260502234331 | 71 | 29 | 0.9 | 2.6 | 0.00 | 0.00 | 0.00 | 49 | 1021.4 |
| 20260502234056 | 70 | 29 | 0.0 | 1.7 | 0.00 | 0.00 | 0.00 | 48 | 1021.0 |
| 20260502233826 | 71 | 29 | 0.0 | 2.6 | 0.00 | 0.00 | 0.00 | 48 | 1021.4 |
| 20260502233548 | 70 | 29 | 0.0 | 3.5 | 0.00 | 0.00 | 0.00 | 47 | 1021.0 |
| 20260502233343 | 71 | 29 | 0.9 | 3.5 | 0.00 | 0.00 | 0.00 | 48 | 1021.4 |
| 20260502233020 | 71 | 29 | 0.9 | 3.5 | 0.00 | 0.00 | 0.00 | 47 | 1021.0 |
| 20260502232819 | 71 | 29 | 2.6 | 3.5 | 0.00 | 0.00 | 0.00 | 46 | 1021.5 |
| 20260502232502 | 71 | 359 | 0.0 | 2.6 | 0.00 | 0.00 | 0.00 | 45 | 1021.0 |
| 20260502232315 | 72 | 329 | 0.0 | 0.0 | 0.00 | 0.00 | 0.00 | 44 | 1021.5 |
| 20260502232035 | 71 | 70 | 0.0 | 0.0 | 0.00 | 0.00 | 0.00 | 43 | 1021.0 |
| 20260502231832 | 72 | 31 | 0.0 | 0.0 | 0.00 | 0.00 | 0.00 | 43 | 1021.5 |
| 20260502231534 | 71 | 19 | 0.0 | 0.0 | 0.00 | 0.00 | 0.00 | 45 | 1021.1 |
| 20260502231327 | 72 | 168 | 0.0 | 0.0 | 0.00 | 0.00 | 0.00 | 44 | 1021.5 |
| 20260502231010 | 71 | 64 | 0.0 | 0.0 | 0.00 | 0.00 | 0.00 | 45 | 1021.1 |
| 20260502230825 | 72 | 47 | 0.0 | 0.0 | 0.00 | 0.00 | 0.00 | 45 | 1021.4 |
| 20260502230602 | 71 | 69 | 0.0 | 0.0 | 0.00 | 0.00 | 0.00 | 44 | 1021.1 |
| 20260502230322 | 72 | 112 | 0.0 | 0.0 | 0.00 | 0.00 | 0.00 | 45 | 1021.5 |
| 20260502230054 | 72 | 68 | 0.0 | 0.0 | 0.00 | 0.00 | 0.00 | 44 | 1021.1 |
| 20260502225818 | 72 | 38 | 0.0 | 0.0 | 0.00 | 0.00 | 0.00 | 46 | 1021.4 |
| 20260502225543 | 72 | 18 | 0.0 | 0.0 | 0.00 | 0.00 | 0.00 | 46 | 1021.0 |
| 20260502225333 | 72 | 145 | 0.0 | 0.0 | 0.00 | 0.00 | 0.00 | 46 | 1021.3 |
| 20260502225012 | 71 | 146 | 0.0 | 0.0 | 0.00 | 0.00 | 0.00 | 46 | 1020.9 |
| 20260502224829 | 72 | 145 | 0.0 | 0.0 | 0.00 | 0.00 | 0.00 | 45 | 1021.3 |
| 20260502224504 | 71 | 129 | 0.0 | 0.0 | 0.00 | 0.00 | 0.00 | 46 | 1021.0 |
| 20260502224325 | 72 | 128 | 0.0 | 0.0 | 0.00 | 0.00 | 0.00 | 46 | 1021.3 |
| 20260502224100 | 71 | 128 | 0.0 | 0.0 | 0.00 | 0.00 | 0.00 | 46 | 1021.1 |
| 20260502223821 | 72 | 128 | 0.0 | 0.0 | 0.00 | 0.00 | 0.00 | 46 | 1021.4 |
| 20260502223550 | 71 | 128 | 0.0 | 0.0 | 0.00 | 0.00 | 0.00 | 46 | 1021.0 |
| 20260502223317 | 72 | 128 | 0.0 | 0.0 | 0.00 | 0.00 | 0.00 | 47 | 1021.5 |
| 20260502223040 | 72 | 100 | 0.0 | 0.0 | 0.00 | 0.00 | 0.00 | 46 | 1021.1 |
| 20260502222852 | 72 | 46 | 0.0 | 0.0 | 0.00 | 0.00 | 0.00 | 46 | 1021.4 |
| 20260502222506 | 72 | 117 | 0.0 | 0.0 | 0.00 | 0.00 | 0.00 | 46 | 1021.1 |
| 20260502222348 | 72 | 75 | 0.0 | 0.0 | 0.00 | 0.00 | 0.00 | 46 | 1021.4 |
| 20260502222038 | 72 | 4 | 0.0 | 0.0 | 0.00 | 0.00 | 0.00 | 47 | 1021.2 |
| 20260502221823 | 72 | 68 | 0.0 | 0.0 | 0.00 | 0.00 | 0.00 | 46 | 1021.5 |
| 20260502221532 | 72 | 55 | 0.0 | 0.0 | 0.00 | 0.00 | 0.00 | 44 | 1021.1 |
| 20260502221336 | 72 | 69 | 0.0 | 0.0 | 0.00 | 0.00 | 0.00 | 45 | 1021.5 |
| 20260502221056 | 72 | 72 | 0.0 | 0.0 | 0.00 | 0.00 | 0.00 | 45 | 1021.2 |
| 20260502220832 | 72 | 56 | 0.0 | 0.0 | 0.00 | 0.00 | 0.00 | 44 | 1021.6 |
| 20260502220548 | 72 | 93 | 0.0 | 0.0 | 0.00 | 0.00 | 0.00 | 44 | 1021.2 |
| 20260502220328 | 72 | 316 | 0.0 | 0.0 | 0.00 | 0.00 | 0.00 | 44 | 1021.5 |
| 20260502220012 | 71 | 359 | 0.0 | 0.0 | 0.00 | 0.00 | 0.00 | 45 | 1021.3 |
| 20260502215824 | 72 | 126 | 0.0 | 0.0 | 0.00 | 0.00 | 0.00 | 44 | 1021.6 |
| 20260502215506 | 71 | 294 | 0.0 | 0.0 | 0.00 | 0.00 | 0.00 | 43 | 1021.4 |
| 20260502215321 | 72 | 323 | 0.0 | 0.0 | 0.00 | 0.00 | 0.00 | 44 | 1021.6 |
| 20260502215059 | 71 | 23 | 0.0 | 0.0 | 0.00 | 0.00 | 0.00 | 44 | 1021.5 |
| 20260502214817 | 72 | 4 | 0.0 | 0.0 | 0.00 | 0.00 | 0.00 | 45 | 1021.8 |
| 20260502214552 | 71 | 53 | 0.0 | 0.0 | 0.00 | 0.00 | 0.00 | 45 | 1021.5 |
| 20260502214314 | 72 | 53 | 0.0 | 0.0 | 0.00 | 0.00 | 0.00 | 45 | 1021.8 |
| 20260502214046 | 71 | 308 | 0.0 | 0.0 | 0.00 | 0.00 | 0.00 | 44 | 1021.5 |
| 20260502213831 | 72 | 39 | 0.0 | 0.0 | 0.00 | 0.00 | 0.00 | 46 | 1021.9 |
| 20260502213541 | 71 | 85 | 0.0 | 0.0 | 0.00 | 0.00 | 0.00 | 45 | 1021.7 |
| 20260502213325 | 71 | 85 | 0.0 | 0.0 | 0.00 | 0.00 | 0.00 | 43 | 1022.0 |
| 20260502213038 | 71 | 56 | 0.0 | 0.0 | 0.00 | 0.00 | 0.00 | 45 | 1021.8 |
| 20260502212821 | 72 | 359 | 0.0 | 0.0 | 0.00 | 0.00 | 0.00 | 46 | 1022.2 |
| 20260502212522 | 71 | 99 | 0.0 | 0.0 | 0.00 | 0.00 | 0.00 | 44 | 1021.8 |
| 20260502212316 | 72 | 62 | 0.0 | 0.0 | 0.00 | 0.00 | 0.00 | 44 | 1022.3 |
| 20260502212016 | 71 | 54 | 0.0 | 0.0 | 0.00 | 0.00 | 0.00 | 45 | 1022.0 |
| 20260502211832 | 72 | 123 | 0.0 | 0.0 | 0.00 | 0.00 | 0.00 | 45 | 1022.1 |
| 20260502211600 | 71 | 123 | 0.0 | 0.0 | 0.00 | 0.00 | 0.00 | 45 | 1022.0 |
| 20260502211329 | 71 | 66 | 0.0 | 0.0 | 0.00 | 0.00 | 0.00 | 47 | 1022.2 |
| 20260502211051 | 71 | 8 | 0.0 | 3.5 | 0.00 | 0.00 | 0.00 | 44 | 1022.0 |
| 20260502210825 | 71 | 43 | 0.0 | 5.2 | 0.00 | 0.00 | 0.00 | 44 | 1022.3 |
| 20260502210545 | 71 | 54 | 0.0 | 5.2 | 0.00 | 0.00 | 0.00 | 45 | 1022.0 |
| 20260502210318 | 71 | 64 | 0.9 | 8.7 | 0.00 | 0.00 | 0.00 | 45 | 1022.3 |
| 20260502210020 | 71 | 64 | 3.5 | 9.6 | 0.00 | 0.00 | 0.00 | 45 | 1022.1 |
| 20260502205814 | 71 | 16 | 2.6 | 9.6 | 0.00 | 0.00 | 0.00 | 48 | 1022.5 |
| 20260502205504 | 71 | 50 | 5.2 | 11.3 | 0.00 | 0.00 | 0.00 | 46 | 1022.2 |
| 20260502205330 | 71 | 62 | 5.2 | 11.3 | 0.00 | 0.00 | 0.00 | 46 | 1022.6 |
| 20260502205057 | 71 | 45 | 7.0 | 11.3 | 0.00 | 0.00 | 0.00 | 44 | 1022.3 |
| 20260502204825 | 71 | 39 | 7.0 | 10.4 | 0.00 | 0.00 | 0.00 | 46 | 1022.6 |
| 20260502204550 | 71 | 52 | 2.6 | 5.2 | 0.00 | 0.00 | 0.00 | 47 | 1022.4 |
| 20260502204322 | 71 | 83 | 1.7 | 7.8 | 0.00 | 0.00 | 0.00 | 45 | 1022.7 |
| 20260502204042 | 71 | 359 | 1.7 | 9.6 | 0.00 | 0.00 | 0.00 | 45 | 1022.4 |
| 20260502203818 | 71 | 336 | 3.5 | 9.6 | 0.00 | 0.00 | 0.00 | 46 | 1022.7 |
| 20260502203536 | 71 | 18 | 5.2 | 9.6 | 0.00 | 0.00 | 0.00 | 45 | 1022.5 |
| 20260502203354 | 71 | 53 | 4.3 | 7.8 | 0.00 | 0.00 | 0.00 | 47 | 1022.8 |
| 20260502203058 | 71 | 338 | 2.6 | 6.1 | 0.00 | 0.00 | 0.00 | 49 | 1022.6 |
| 20260502202849 | 71 | 119 | 3.5 | 5.2 | 0.00 | 0.00 | 0.00 | 46 | 1022.8 |
| 20260502202527 | 71 | 37 | 0.0 | 0.0 | 0.00 | 0.00 | 0.00 | 47 | 1022.5 |
| 20260502202325 | 71 | 43 | 0.0 | 0.0 | 0.00 | 0.00 | 0.00 | 50 | 1022.8 |
| 20260502202019 | 71 | 37 | 0.0 | 0.0 | 0.00 | 0.00 | 0.00 | 49 | 1022.6 |
| 20260502201821 | 71 | 71 | 0.0 | 0.0 | 0.00 | 0.00 | 0.00 | 49 | 1022.8 |
| 20260502201513 | 70 | 156 | 0.0 | 0.0 | 0.00 | 0.00 | 0.00 | 47 | 1022.6 |
| 20260502201316 | 71 | 156 | 0.0 | 0.0 | 0.00 | 0.00 | 0.00 | 48 | 1022.8 |
| 20260502201056 | 71 | 69 | 0.0 | 0.0 | 0.00 | 0.00 | 0.00 | 50 | 1022.7 |
| 20260502200832 | 71 | 70 | 0.0 | 0.0 | 0.00 | 0.00 | 0.00 | 51 | 1022.9 |
| 20260502200548 | 70 | 77 | 0.0 | 0.0 | 0.00 | 0.00 | 0.00 | 49 | 1022.7 |
| 20260502200327 | 71 | 26 | 0.0 | 0.0 | 0.00 | 0.00 | 0.00 | 49 | 1022.9 |
| 20260502200054 | 70 | 50 | 0.0 | 0.0 | 0.00 | 0.00 | 0.00 | 48 | 1022.9 |
| 20260502195822 | 71 | 4 | 0.0 | 0.0 | 0.00 | 0.00 | 0.00 | 49 | 1023.0 |
| 20260502195529 | 70 | 37 | 0.0 | 0.0 | 0.00 | 0.00 | 0.00 | 51 | 1022.8 |
| 20260502195317 | 70 | 46 | 0.0 | 0.0 | 0.00 | 0.00 | 0.00 | 49 | 1023.0 |
| 20260502195019 | 70 | 60 | 0.0 | 0.0 | 0.00 | 0.00 | 0.00 | 50 | 1022.8 |
| 20260502194853 | 70 | 58 | 0.0 | 0.0 | 0.00 | 0.00 | 0.00 | 50 | 1023.1 |
| 20260502194553 | 70 | 81 | 0.0 | 0.0 | 0.00 | 0.00 | 0.00 | 49 | 1023.0 |
| 20260502194328 | 70 | 45 | 0.0 | 0.0 | 0.00 | 0.00 | 0.00 | 50 | 1023.1 |
| 20260502194045 | 70 | 79 | 0.0 | 0.0 | 0.00 | 0.00 | 0.00 | 51 | 1023.0 |
| 20260502193842 | 70 | 39 | 0.0 | 0.0 | 0.00 | 0.00 | 0.00 | 50 | 1023.2 |
| 20260502193521 | 69 | 16 | 0.0 | 0.0 | 0.00 | 0.00 | 0.00 | 49 | 1023.1 |
| 20260502193318 | 70 | 34 | 0.0 | 0.0 | 0.00 | 0.00 | 0.00 | 52 | 1023.3 |
| 20260502193005 | 69 | 4 | 0.0 | 0.0 | 0.00 | 0.00 | 0.00 | 51 | 1023.0 |
| 20260502192815 | 69 | 43 | 0.0 | 0.0 | 0.00 | 0.00 | 0.00 | 51 | 1023.2 |
| 20260502192558 | 69 | 72 | 0.0 | 0.0 | 0.00 | 0.00 | 0.00 | 50 | 1023.0 |
| 20260502192332 | 70 | 11 | 0.0 | 0.0 | 0.00 | 0.00 | 0.00 | 49 | 1023.1 |
| 20260502192047 | 69 | 15 | 0.0 | 3.5 | 0.00 | 0.00 | 0.00 | 49 | 1023.1 |
| 20260502191828 | 70 | 354 | 0.0 | 3.5 | 0.00 | 0.00 | 0.00 | 48 | 1023.2 |
| 20260502191543 | 70 | 11 | 0.0 | 3.5 | 0.00 | 0.00 | 0.00 | 52 | 1023.1 |
| 20260502191322 | 70 | 10 | 0.0 | 0.0 | 0.00 | 0.00 | 0.00 | 51 | 1023.3 |
| 20260502191031 | 70 | 13 | 0.0 | 3.5 | 0.00 | 0.00 | 0.00 | 53 | 1023.1 |
| 20260502190816 | 70 | 45 | 0.0 | 3.5 | 0.00 | 0.00 | 0.00 | 55 | 1023.2 |
| 20260502190556 | 69 | 58 | 0.0 | 7.0 | 0.00 | 0.00 | 0.00 | 55 | 1023.1 |
| 20260502190332 | 69 | 35 | 0.9 | 9.6 | 0.00 | 0.00 | 0.00 | 55 | 1023.2 |
| 20260502190050 | 69 | 48 | 1.7 | 13.0 | 0.00 | 0.00 | 0.00 | 53 | 1023.2 |
| 20260502185829 | 69 | 354 | 3.5 | 13.0 | 0.00 | 0.08 | 0.00 | 53 | 1023.3 |
| 20260502185539 | 69 | 50 | 7.8 | 13.0 | 0.00 | 0.08 | 0.00 | 54 | 1023.2 |
| 20260502185326 | 69 | 4 | 7.8 | 13.0 | 0.00 | 0.08 | 0.00 | 54 | 1023.3 |
| 20260502185031 | 69 | 354 | 7.0 | 12.2 | 0.00 | 0.08 | 0.00 | 54 | 1023.2 |
| 20260502184841 | 69 | 31 | 4.3 | 10.4 | 0.00 | 0.08 | 0.00 | 54 | 1023.3 |
| 20260502184556 | 68 | 335 | 6.1 | 12.2 | 0.00 | 0.08 | 0.00 | 53 | 1023.2 |
| 20260502184315 | 69 | 11 | 5.2 | 12.2 | 0.00 | 0.08 | 0.00 | 52 | 1023.4 |
| 20260502184047 | 68 | 61 | 5.2 | 12.2 | 0.00 | 0.08 | 0.00 | 53 | 1023.3 |
| 20260502183851 | 69 | 93 | 5.2 | 10.4 | 0.00 | 0.08 | 0.00 | 56 | 1023.4 |
| 20260502183513 | 68 | 97 | 3.5 | 11.3 | 0.00 | 0.08 | 0.00 | 54 | 1023.2 |
| 20260502183327 | 69 | 12 | 4.3 | 11.3 | 0.00 | 0.08 | 0.00 | 55 | 1023.4 |
| 20260502183003 | 68 | 47 | 7.0 | 11.3 | 0.00 | 0.08 | 0.00 | 55 | 1023.3 |
| 20260502182556 | 68 | 48 | 4.3 | 10.4 | 0.00 | 0.08 | 0.00 | 52 | 1023.3 |
| 20260502182317 | 69 | 44 | 4.3 | 10.4 | 0.00 | 0.08 | 0.00 | 56 | 1023.4 |
| 20260502182048 | 68 | 42 | 3.5 | 10.4 | 0.00 | 0.08 | 0.00 | 55 | 1023.3 |
| 20260502181833 | 68 | 19 | 2.6 | 10.4 | 0.00 | 0.08 | 0.00 | 56 | 1023.5 |
| 20260502181540 | 68 | 24 | 7.0 | 10.4 | 0.00 | 0.08 | 0.00 | 55 | 1023.5 |
| 20260502181328 | 68 | 21 | 6.1 | 9.6 | 0.00 | 0.08 | 0.00 | 58 | 1023.7 |
| 20260502181029 | 68 | 347 | 4.3 | 9.6 | 0.00 | 0.08 | 0.00 | 58 | 1023.5 |
| 20260502180824 | 68 | 326 | 5.2 | 9.6 | 0.00 | 0.08 | 0.00 | 56 | 1023.7 |
| 20260502180522 | 67 | 339 | 6.1 | 9.6 | 0.00 | 0.08 | 0.00 | 56 | 1023.6 |
| 20260502180319 | 68 | 313 | 4.3 | 7.8 | 0.00 | 0.08 | 0.00 | 57 | 1023.8 |
| 20260502170328 | 65 | 4 | 3.5 | 8.7 | 0.00 | 0.16 | 0.00 | 65 | 1024.6 |
| 20260502164326 | 64 | 343 | 1.7 | 9.6 | 0.00 | 0.17 | 0.00 | 68 | 1024.8 |
| 20260502164007 | 64 | 65 | 4.3 | 9.6 | 0.00 | 0.17 | 0.00 | 67 | 1024.8 |
| 20260502163822 | 64 | 15 | 2.6 | 9.6 | 0.00 | 0.17 | 0.00 | 68 | 1024.8 |
| 20260502163501 | 63 | 4 | 4.3 | 7.0 | 0.00 | 0.17 | 0.00 | 69 | 1024.8 |
| 20260502163318 | 64 | 335 | 2.6 | 7.0 | 0.00 | 0.17 | 0.00 | 70 | 1024.8 |
| 20260502163057 | 63 | 343 | 4.3 | 7.0 | 0.00 | 0.17 | 0.00 | 68 | 1024.8 |
| 20260502162853 | 63 | 359 | 4.3 | 8.7 | 0.00 | 0.17 | 0.00 | 68 | 1024.8 |
| 20260502162516 | 63 | 27 | 1.7 | 8.7 | 0.00 | 0.17 | 0.00 | 68 | 1024.9 |
| 20260502162329 | 63 | 33 | 4.3 | 8.7 | 0.00 | 0.17 | 0.00 | 67 | 1024.9 |
| 20260502162007 | 63 | 18 | 0.0 | 9.6 | 0.00 | 0.17 | 0.00 | 71 | 1024.9 |
| 20260502161823 | 63 | 247 | 0.9 | 9.6 | 0.00 | 0.17 | 0.00 | 69 | 1024.9 |
| 20260502161503 | 63 | 289 | 3.5 | 9.6 | 0.00 | 0.17 | 0.00 | 68 | 1024.9 |
| 20260502161341 | 63 | 337 | 6.1 | 9.6 | 0.00 | 0.17 | 0.00 | 69 | 1025.0 |
| 20260502161035 | 63 | 345 | 3.5 | 7.8 | 0.00 | 0.17 | 0.00 | 69 | 1024.9 |
| 20260502160835 | 63 | 330 | 1.7 | 8.7 | 0.00 | 0.17 | 0.00 | 69 | 1024.9 |
| 20260502160602 | 62 | 317 | 1.7 | 8.7 | 0.00 | 0.17 | 0.00 | 69 | 1024.9 |
| 20260502160330 | 63 | 354 | 1.7 | 8.7 | 0.00 | 0.17 | 0.00 | 70 | 1025.0 |
| 20260502152321 | 61 | 278 | 2.6 | 5.2 | 0.00 | 0.17 | 0.00 | 74 | 1024.5 |
| 20260502152045 | 60 | 294 | 2.6 | 7.0 | 0.00 | 0.17 | 0.00 | 74 | 1024.4 |
| 20260502151818 | 60 | 307 | 1.7 | 8.7 | 0.00 | 0.17 | 0.00 | 74 | 1024.4 |
| 20260502151558 | 60 | 289 | 3.5 | 8.7 | 0.00 | 0.17 | 0.00 | 74 | 1024.5 |
| 20260502151333 | 60 | 304 | 4.3 | 8.7 | 0.00 | 0.17 | 0.00 | 74 | 1024.4 |
| 20260502151033 | 60 | 359 | 4.3 | 8.7 | 0.00 | 0.17 | 0.00 | 73 | 1024.5 |
| 20260502150851 | 60 | 303 | 4.3 | 7.8 | 0.00 | 0.17 | 0.00 | 75 | 1024.5 |
| 20260502150558 | 60 | 312 | 3.5 | 5.2 | 0.00 | 0.17 | 0.00 | 75 | 1024.6 |
| 20260502150326 | 60 | 276 | 2.6 | 5.2 | 0.00 | 0.17 | 0.00 | 76 | 1024.5 |
| 20260502130545 | 50 | 248 | 0.9 | 2.6 | 0.00 | 0.37 | 0.00 | 91 | 1023.8 |
| 20260502130327 | 51 | 248 | 1.7 | 2.6 | 0.00 | 0.37 | 0.00 | 91 | 1023.6 |
| 20260502123530 | 47 | 249 | 1.7 | 3.5 | 0.00 | 0.41 | 0.00 | 91 | 1023.5 |
| 20260502123321 | 48 | 249 | 2.6 | 3.5 | 0.00 | 0.41 | 0.00 | 91 | 1023.4 |
| 20260502123026 | 47 | 249 | 2.6 | 3.5 | 0.00 | 0.41 | 0.00 | 91 | 1023.4 |
| 20260502122816 | 47 | 249 | 2.6 | 3.5 | 0.00 | 0.41 | 0.00 | 91 | 1023.3 |
| 20260502122511 | 47 | 249 | 1.7 | 3.5 | 0.00 | 0.41 | 0.00 | 91 | 1023.2 |
| 20260502122332 | 47 | 249 | 1.7 | 3.5 | 0.00 | 0.41 | 0.00 | 91 | 1023.2 |
| 20260502122043 | 47 | 249 | 1.7 | 3.5 | 0.00 | 0.41 | 0.00 | 91 | 1023.2 |
| 20260502121825 | 47 | 249 | 2.6 | 3.5 | 0.00 | 0.41 | 0.00 | 90 | 1023.1 |
| 20260502121540 | 46 | 249 | 1.7 | 3.5 | 0.00 | 0.41 | 0.00 | 90 | 1023.1 |
| 20260502121322 | 47 | 249 | 2.6 | 3.5 | 0.00 | 0.41 | 0.00 | 90 | 1023.0 |
| 20260502121029 | 46 | 249 | 1.7 | 2.6 | 0.00 | 0.41 | 0.00 | 90 | 1022.9 |
| 20260502120817 | 47 | 249 | 1.7 | 3.5 | 0.00 | 0.41 | 0.00 | 90 | 1022.8 |
| 20260502120553 | 47 | 249 | 1.7 | 3.5 | 0.00 | 0.41 | 0.00 | 90 | 1022.6 |
| 20260502120332 | 47 | 249 | 1.7 | 3.5 | 0.00 | 0.41 | 0.00 | 90 | 1022.6 |
| 20260502115825 | 47 | 249 | 1.7 | 2.6 | 0.00 | 0.45 | 0.00 | 90 | 1022.5 |
| 20260502115537 | 47 | 249 | 1.7 | 3.5 | 0.00 | 0.45 | 0.00 | 90 | 1022.4 |
| 20260502115320 | 47 | 249 | 1.7 | 3.5 | 0.00 | 0.45 | 0.00 | 90 | 1022.3 |
| 20260502115029 | 47 | 249 | 1.7 | 3.5 | 0.00 | 0.45 | 0.00 | 90 | 1022.2 |
| 20260502114816 | 47 | 249 | 2.6 | 3.5 | 0.00 | 0.45 | 0.00 | 90 | 1022.3 |
| 20260502114514 | 47 | 254 | 1.7 | 2.6 | 0.00 | 0.45 | 0.00 | 90 | 1022.3 |
| 20260502114349 | 48 | 359 | 1.7 | 2.6 | 0.00 | 0.45 | 0.00 | 90 | 1022.3 |
| 20260502114047 | 47 | 314 | 1.7 | 2.6 | 0.00 | 0.45 | 0.00 | 90 | 1022.2 |
| 20260502113821 | 48 | 314 | 1.7 | 2.6 | 0.00 | 0.45 | 0.00 | 90 | 1022.2 |
| 20260502113541 | 47 | 359 | 0.9 | 2.6 | 0.00 | 0.45 | 0.00 | 90 | 1022.1 |
| 20260502113317 | 48 | 314 | 1.7 | 2.6 | 0.00 | 0.45 | 0.00 | 90 | 1022.0 |
| 20260502113045 | 47 | 314 | 0.9 | 3.5 | 0.00 | 0.45 | 0.00 | 90 | 1021.9 |
| 20260502112832 | 48 | 314 | 1.7 | 3.5 | 0.00 | 0.45 | 0.00 | 90 | 1022.0 |
| 20260502112516 | 47 | 328 | 1.7 | 3.5 | 0.00 | 0.45 | 0.00 | 90 | 1021.9 |
| 20260502112328 | 48 | 310 | 2.6 | 3.5 | 0.00 | 0.45 | 0.00 | 90 | 1022.0 |
| 20260502112011 | 47 | 307 | 1.7 | 3.5 | 0.00 | 0.45 | 0.00 | 90 | 1021.8 |
| 20260502111946 | 48 | 308 | 2.6 | 3.5 | 0.00 | 0.45 | 0.00 | 91 | 1021.9 |
| 20260502111549 | 47 | 359 | 1.7 | 3.5 | 0.00 | 0.45 | 0.00 | 91 | 1021.8 |
| 20260502111327 | 47 | 359 | 1.7 | 3.5 | 0.00 | 0.45 | 0.00 | 91 | 1021.7 |
| 20260502111039 | 47 | 312 | 1.7 | 3.5 | 0.00 | 0.45 | 0.00 | 91 | 1021.7 |
| 20260502110823 | 47 | 359 | 1.7 | 3.5 | 0.00 | 0.45 | 0.00 | 91 | 1021.6 |
| 20260502110533 | 47 | 312 | 1.7 | 3.5 | 0.00 | 0.45 | 0.00 | 91 | 1021.7 |
| 20260502110318 | 47 | 312 | 1.7 | 3.5 | 0.00 | 0.45 | 0.00 | 91 | 1021.5 |
| 20260502110034 | 47 | 312 | 1.7 | 4.3 | 0.00 | 0.45 | 0.00 | 91 | 1021.4 |
| 20260502105832 | 47 | 311 | 2.6 | 4.3 | 0.00 | 0.50 | 0.00 | 91 | 1021.5 |
| 20260502105511 | 47 | 312 | 1.7 | 4.3 | 0.00 | 0.50 | 0.00 | 91 | 1021.4 |
| 20260502105327 | 47 | 312 | 2.6 | 4.3 | 0.00 | 0.50 | 0.00 | 91 | 1021.3 |
| 20260502105003 | 47 | 312 | 1.7 | 3.5 | 0.00 | 0.50 | 0.00 | 91 | 1021.3 |
| 20260502104822 | 47 | 312 | 1.7 | 3.5 | 0.00 | 0.50 | 0.00 | 91 | 1021.3 |
| 20260502104557 | 47 | 312 | 1.7 | 3.5 | 0.00 | 0.50 | 0.00 | 91 | 1021.1 |
| 20260502104339 | 47 | 312 | 2.6 | 4.3 | 0.00 | 0.50 | 0.00 | 91 | 1021.1 |
| 20260502104028 | 47 | 312 | 0.9 | 4.3 | 0.00 | 0.50 | 0.00 | 91 | 1021.0 |
| 20260502103814 | 47 | 359 | 2.6 | 4.3 | 0.00 | 0.50 | 0.00 | 91 | 1021.0 |
| 20260502103521 | 47 | 312 | 2.6 | 4.3 | 0.00 | 0.50 | 0.00 | 91 | 1020.8 |
| 20260502103331 | 47 | 323 | 1.7 | 3.5 | 0.00 | 0.50 | 0.00 | 91 | 1020.9 |
| 20260502103005 | 47 | 330 | 0.9 | 3.5 | 0.00 | 0.50 | 0.00 | 91 | 1020.9 |
| 20260502102826 | 47 | 329 | 1.7 | 3.5 | 0.00 | 0.50 | 0.00 | 91 | 1020.7 |
| 20260502102602 | 47 | 330 | 1.7 | 3.5 | 0.00 | 0.50 | 0.00 | 91 | 1020.7 |
| 20260502102322 | 47 | 329 | 2.6 | 3.5 | 0.00 | 0.50 | 0.00 | 91 | 1020.7 |
| 20260502102052 | 47 | 339 | 1.7 | 2.6 | 0.00 | 0.50 | 0.00 | 91 | 1020.6 |
| 20260502101817 | 47 | 339 | 1.7 | 2.6 | 0.00 | 0.50 | 0.00 | 91 | 1020.7 |
| 20260502101557 | 47 | 339 | 0.9 | 2.6 | 0.00 | 0.50 | 0.00 | 91 | 1020.6 |
| 20260502101353 | 47 | 339 | 1.7 | 2.6 | 0.00 | 0.50 | 0.00 | 91 | 1020.6 |
| 20260502101010 | 47 | 339 | 1.7 | 2.6 | 0.00 | 0.50 | 0.00 | 91 | 1020.5 |
| 20260502100827 | 47 | 339 | 1.7 | 2.6 | 0.00 | 0.50 | 0.00 | 91 | 1020.5 |
| 20260502100502 | 47 | 339 | 0.9 | 2.6 | 0.00 | 0.50 | 0.00 | 91 | 1020.6 |
| 20260502100323 | 47 | 339 | 1.7 | 2.6 | 0.00 | 0.50 | 0.00 | 91 | 1020.6 |
| 20260502100103 | 47 | 339 | 1.7 | 2.6 | 0.00 | 0.50 | 0.00 | 91 | 1020.4 |
| 20260502091319 | 48 | 359 | 1.7 | 3.5 | 0.00 | 0.58 | 0.00 | 91 | 1020.6 |
| 20260502091051 | 47 | 339 | 0.9 | 3.5 | 0.00 | 0.57 | 0.00 | 91 | 1020.5 |
| 20260502090817 | 48 | 339 | 1.7 | 3.5 | 0.00 | 0.58 | 0.00 | 91 | 1020.8 |
| 20260502090542 | 47 | 339 | 0.9 | 3.5 | 0.00 | 0.57 | 0.00 | 91 | 1020.5 |
| 20260502090333 | 48 | 339 | 2.6 | 3.5 | 0.00 | 0.58 | 0.00 | 91 | 1020.6 |
| 20260502071316 | 49 | 332 | 2.6 | 3.5 | 0.00 | 0.66 | 0.00 | 90 | 1020.8 |
| 20260502071040 | 48 | 359 | 1.7 | 3.5 | 0.00 | 0.66 | 0.00 | 90 | 1020.6 |
| 20260502070831 | 49 | 331 | 1.7 | 3.5 | 0.00 | 0.66 | 0.00 | 90 | 1020.8 |
| 20260502070526 | 48 | 359 | 1.7 | 3.5 | 0.00 | 0.66 | 0.00 | 90 | 1020.7 |
| 20260502070326 | 49 | 332 | 2.6 | 3.5 | 0.00 | 0.66 | 0.00 | 90 | 1020.8 |
| 20260502070037 | 49 | 334 | 1.7 | 4.3 | 0.00 | 0.66 | 0.00 | 90 | 1020.6 |
| 20260502065822 | 49 | 333 | 2.6 | 4.3 | 0.00 | 0.66 | 0.00 | 90 | 1020.8 |
| 20260502065515 | 49 | 359 | 1.7 | 4.3 | 0.00 | 0.66 | 0.00 | 89 | 1020.6 |
| 20260502065316 | 50 | 324 | 2.6 | 4.3 | 0.00 | 0.66 | 0.00 | 89 | 1020.8 |
| 20260502065059 | 49 | 23 | 1.7 | 3.5 | 0.00 | 0.66 | 0.00 | 89 | 1020.6 |
| 20260502064832 | 50 | 23 | 0.9 | 3.5 | 0.00 | 0.66 | 0.00 | 89 | 1020.9 |
| 20260502064604 | 49 | 23 | 1.7 | 3.5 | 0.00 | 0.66 | 0.00 | 89 | 1020.6 |
| 20260502064328 | 50 | 23 | 1.7 | 3.5 | 0.00 | 0.66 | 0.00 | 89 | 1020.7 |
| 20260502064042 | 49 | 23 | 2.6 | 3.5 | 0.00 | 0.66 | 0.00 | 89 | 1020.5 |
| 20260502063824 | 50 | 23 | 2.6 | 3.5 | 0.00 | 0.66 | 0.00 | 89 | 1020.6 |
| 20260502063536 | 49 | 23 | 0.9 | 3.5 | 0.00 | 0.66 | 0.00 | 89 | 1020.4 |
| 20260502063320 | 50 | 23 | 1.7 | 3.5 | 0.00 | 0.66 | 0.00 | 89 | 1020.5 |
| 20260502063039 | 49 | 23 | 1.7 | 3.5 | 0.00 | 0.66 | 0.00 | 89 | 1020.2 |
| 20260502062815 | 50 | 23 | 1.7 | 3.5 | 0.00 | 0.66 | 0.00 | 89 | 1020.5 |
| 20260502062515 | 49 | 23 | 0.9 | 3.5 | 0.00 | 0.66 | 0.00 | 89 | 1020.1 |
| 20260502062331 | 50 | 23 | 1.7 | 3.5 | 0.00 | 0.66 | 0.00 | 89 | 1020.4 |
| 20260502062010 | 49 | 23 | 1.7 | 3.5 | 0.00 | 0.66 | 0.00 | 90 | 1020.2 |
| 20260502061846 | 50 | 359 | 1.7 | 3.5 | 0.00 | 0.66 | 0.00 | 90 | 1020.4 |
| 20260502061541 | 49 | 359 | 1.7 | 3.5 | 0.00 | 0.66 | 0.00 | 90 | 1020.3 |
| 20260502061321 | 50 | 21 | 2.6 | 3.5 | 0.00 | 0.66 | 0.00 | 90 | 1020.4 |
| 20260502061032 | 49 | 354 | 1.7 | 7.0 | 0.00 | 0.66 | 0.00 | 90 | 1020.4 |
| 20260502060816 | 50 | 359 | 2.6 | 7.0 | 0.00 | 0.66 | 0.00 | 90 | 1020.5 |
| 20260502060518 | 49 | 15 | 1.7 | 7.0 | 0.00 | 0.66 | 0.00 | 90 | 1020.4 |
| 20260502060331 | 50 | 350 | 2.6 | 7.0 | 0.00 | 0.66 | 0.00 | 90 | 1020.6 |
| 20260502060115 | 49 | 18 | 2.6 | 7.0 | 0.00 | 0.66 | 0.00 | 90 | 1020.4 |
| 20260502055820 | 50 | 347 | 2.6 | 7.0 | 0.00 | 0.67 | 0.00 | 91 | 1020.6 |
| 20260502055530 | 49 | 359 | 2.6 | 5.2 | 0.00 | 0.67 | 0.00 | 90 | 1020.4 |
| 20260502055317 | 49 | 337 | 2.6 | 3.5 | 0.00 | 0.67 | 0.00 | 90 | 1020.7 |
| 20260502055027 | 49 | 347 | 1.7 | 3.5 | 0.00 | 0.67 | 0.00 | 90 | 1020.3 |
| 20260502054833 | 50 | 359 | 1.7 | 3.5 | 0.00 | 0.67 | 0.00 | 90 | 1020.6 |
| 20260502054526 | 49 | 341 | 0.9 | 2.6 | 0.00 | 0.67 | 0.00 | 90 | 1020.3 |
| 20260502054349 | 50 | 341 | 1.7 | 2.6 | 0.00 | 0.67 | 0.00 | 90 | 1020.6 |
| 20260502054046 | 49 | 359 | 0.9 | 2.6 | 0.00 | 0.67 | 0.00 | 90 | 1020.5 |
| 20260502053823 | 50 | 359 | 1.7 | 3.5 | 0.00 | 0.67 | 0.00 | 90 | 1020.7 |
| 20260502053532 | 49 | 359 | 0.9 | 3.5 | 0.00 | 0.67 | 0.00 | 90 | 1020.5 |
| 20260502053318 | 50 | 359 | 1.7 | 3.5 | 0.00 | 0.67 | 0.00 | 90 | 1020.7 |
| 20260502053024 | 49 | 359 | 1.7 | 3.5 | 0.00 | 0.67 | 0.00 | 90 | 1020.5 |
| 20260502052836 | 50 | 330 | 1.7 | 3.5 | 0.00 | 0.67 | 0.00 | 90 | 1020.7 |
| 20260502052550 | 50 | 359 | 1.7 | 4.3 | 0.00 | 0.67 | 0.00 | 90 | 1020.4 |
| 20260502052351 | 50 | 359 | 1.7 | 4.3 | 0.00 | 0.67 | 0.00 | 90 | 1020.7 |
| 20260502052014 | 50 | 359 | 0.9 | 4.3 | 0.00 | 0.67 | 0.00 | 90 | 1020.4 |
| 20260502051846 | 50 | 359 | 2.6 | 4.3 | 0.00 | 0.67 | 0.00 | 90 | 1020.6 |
| 20260502051548 | 50 | 359 | 1.7 | 4.3 | 0.00 | 0.67 | 0.00 | 90 | 1020.3 |
| 20260502051319 | 50 | 345 | 2.6 | 3.5 | 0.00 | 0.67 | 0.00 | 90 | 1020.5 |
| 20260502051040 | 50 | 13 | 1.7 | 3.5 | 0.00 | 0.67 | 0.00 | 89 | 1020.2 |
| 20260502050836 | 51 | 13 | 1.7 | 3.5 | 0.00 | 0.67 | 0.00 | 89 | 1020.4 |
| 20260502050505 | 50 | 13 | 0.9 | 3.5 | 0.00 | 0.67 | 0.00 | 89 | 1020.1 |
| 20260502050330 | 51 | 13 | 1.7 | 3.5 | 0.00 | 0.67 | 0.00 | 89 | 1020.4 |
| 20260502045819 | 51 | 13 | 0.9 | 2.6 | 0.00 | 0.67 | 0.67 | 90 | 1020.5 |
| 20260502045509 | 50 | 13 | 0.9 | 3.5 | 0.00 | 0.67 | 0.67 | 90 | 1020.1 |
| 20260502045313 | 51 | 13 | 1.7 | 3.5 | 0.00 | 0.67 | 0.67 | 90 | 1020.4 |
| 20260502045001 | 50 | 13 | 1.7 | 3.5 | 0.00 | 0.67 | 0.67 | 90 | 1020.0 |
| 20260502044829 | 51 | 354 | 1.7 | 3.5 | 0.00 | 0.67 | 0.67 | 90 | 1020.3 |
| 20260502044556 | 50 | 354 | 0.9 | 3.5 | 0.00 | 0.67 | 0.67 | 90 | 1020.1 |
| 20260502044324 | 51 | 359 | 1.7 | 2.6 | 0.00 | 0.67 | 0.67 | 90 | 1020.4 |
| 20260502044046 | 51 | 354 | 0.9 | 2.6 | 0.00 | 0.67 | 0.67 | 89 | 1020.1 |
| 20260502043819 | 51 | 359 | 1.7 | 3.5 | 0.00 | 0.67 | 0.67 | 90 | 1020.5 |
| 20260502043538 | 51 | 359 | 0.9 | 3.5 | 0.00 | 0.67 | 0.67 | 90 | 1020.3 |
| 20260502043335 | 51 | 354 | 1.7 | 3.5 | 0.00 | 0.67 | 0.67 | 90 | 1020.6 |
| 20260502043005 | 51 | 359 | 1.7 | 3.5 | 0.00 | 0.67 | 0.67 | 90 | 1020.0 |
| 20260502042828 | 51 | 354 | 1.7 | 3.5 | 0.00 | 0.67 | 0.67 | 90 | 1020.4 |
| 20260502042604 | 51 | 354 | 0.9 | 4.3 | 0.00 | 0.67 | 0.67 | 90 | 1020.2 |
| 20260502042326 | 51 | 354 | 1.7 | 4.3 | 0.00 | 0.67 | 0.67 | 90 | 1020.4 |
| 20260502042055 | 51 | 359 | 1.7 | 4.3 | 0.00 | 0.67 | 0.67 | 90 | 1020.1 |
| 20260502041822 | 51 | 349 | 2.6 | 4.3 | 0.00 | 0.67 | 0.67 | 90 | 1020.4 |
| 20260502041557 | 51 | 343 | 1.7 | 4.3 | 0.00 | 0.67 | 0.67 | 89 | 1020.0 |
| 20260502041316 | 51 | 359 | 1.7 | 4.3 | 0.00 | 0.67 | 0.67 | 89 | 1020.5 |
| 20260502041043 | 51 | 344 | 1.7 | 4.3 | 0.00 | 0.67 | 0.67 | 89 | 1020.2 |
| 20260502040827 | 51 | 354 | 1.7 | 4.3 | 0.00 | 0.67 | 0.67 | 89 | 1020.4 |
| 20260502040532 | 51 | 359 | 1.7 | 4.3 | 0.00 | 0.67 | 0.67 | 89 | 1020.0 |
| 20260502040323 | 51 | 354 | 2.6 | 4.3 | 0.00 | 0.67 | 0.67 | 89 | 1020.4 |
| 20260502040029 | 51 | 45 | 1.7 | 4.3 | 0.00 | 0.67 | 0.67 | 89 | 1020.1 |
| 20260502035818 | 52 | 45 | 1.7 | 4.3 | 0.00 | 0.67 | 0.67 | 89 | 1020.4 |
| 20260502035518 | 51 | 45 | 1.7 | 3.5 | 0.00 | 0.67 | 0.67 | 89 | 1020.0 |
| 20260502035314 | 52 | 45 | 1.7 | 3.5 | 0.00 | 0.67 | 0.67 | 89 | 1020.3 |
| 20260502035002 | 51 | 45 | 1.7 | 3.5 | 0.00 | 0.67 | 0.67 | 89 | 1019.9 |
| 20260502034828 | 52 | 45 | 1.7 | 3.5 | 0.00 | 0.67 | 0.67 | 89 | 1020.3 |
| 20260502034558 | 51 | 45 | 0.9 | 3.5 | 0.00 | 0.67 | 0.67 | 89 | 1020.0 |
| 20260502034324 | 52 | 45 | 1.7 | 3.5 | 0.00 | 0.67 | 0.67 | 89 | 1020.3 |
| 20260502034054 | 51 | 45 | 1.7 | 3.5 | 0.00 | 0.67 | 0.67 | 89 | 1020.0 |
| 20260502033821 | 52 | 45 | 1.7 | 2.6 | 0.00 | 0.67 | 0.67 | 89 | 1020.4 |
| 20260502033544 | 52 | 45 | 0.9 | 2.6 | 0.00 | 0.67 | 0.67 | 88 | 1020.0 |
| 20260502033318 | 52 | 45 | 0.9 | 2.6 | 0.00 | 0.67 | 0.67 | 88 | 1020.3 |
| 20260502033039 | 52 | 45 | 0.9 | 2.6 | 0.00 | 0.67 | 0.67 | 88 | 1019.9 |
| 20260502032814 | 52 | 45 | 0.9 | 2.6 | 0.00 | 0.67 | 0.67 | 88 | 1020.3 |
| 20260502032530 | 52 | 45 | 0.9 | 2.6 | 0.00 | 0.67 | 0.67 | 88 | 1020.0 |
| 20260502032331 | 52 | 45 | 0.9 | 2.6 | 0.00 | 0.67 | 0.67 | 88 | 1020.3 |
| 20260502032010 | 52 | 45 | 0.9 | 2.6 | 0.00 | 0.67 | 0.67 | 88 | 1020.0 |
| 20260502031825 | 53 | 45 | 0.9 | 2.6 | 0.00 | 0.67 | 0.67 | 88 | 1020.3 |
| 20260502031543 | 52 | 45 | 0.9 | 2.6 | 0.00 | 0.67 | 0.67 | 88 | 1020.0 |
| 20260502031340 | 53 | 45 | 1.7 | 2.6 | 0.00 | 0.67 | 0.67 | 88 | 1020.3 |
| 20260502031004 | 52 | 45 | 0.0 | 2.6 | 0.00 | 0.67 | 0.67 | 88 | 1019.8 |
| 20260502030814 | 53 | 45 | 0.9 | 2.6 | 0.00 | 0.67 | 0.67 | 88 | 1020.1 |
| 20260502030558 | 52 | 45 | 0.0 | 3.5 | 0.00 | 0.67 | 0.67 | 88 | 1019.6 |
| 20260502030330 | 53 | 45 | 0.9 | 3.5 | 0.00 | 0.67 | 0.67 | 87 | 1019.9 |
| 20260502030056 | 53 | 45 | 0.9 | 3.5 | 0.00 | 0.67 | 0.67 | 87 | 1019.4 |
| 20260502025846 | 53 | 45 | 2.6 | 3.5 | 0.00 | 0.69 | 0.67 | 87 | 1019.9 |
| 20260502025526 | 53 | 45 | 1.7 | 3.5 | 0.00 | 0.69 | 0.67 | 87 | 1019.5 |
| 20260502025321 | 53 | 45 | 1.7 | 4.3 | 0.00 | 0.69 | 0.67 | 87 | 1019.9 |
| 20260502025020 | 53 | 45 | 0.9 | 4.3 | 0.00 | 0.69 | 0.67 | 87 | 1019.5 |
| 20260502024817 | 54 | 45 | 1.7 | 7.0 | 0.00 | 0.69 | 0.67 | 87 | 1019.9 |
| 20260502024611 | 53 | 45 | 0.9 | 7.0 | 0.00 | 0.69 | 0.67 | 87 | 1019.4 |
| 20260502024353 | 54 | 35 | 1.7 | 7.0 | 0.00 | 0.69 | 0.67 | 87 | 1019.7 |
| 20260502024038 | 53 | 39 | 2.6 | 7.0 | 0.00 | 0.69 | 0.67 | 86 | 1019.4 |
| 20260502023828 | 54 | 26 | 2.6 | 5.2 | 0.00 | 0.69 | 0.67 | 87 | 1019.8 |